Powrót do katalogu

STARLINK-35423

AktywnyŁącznośćVLEO
NORAD 65873·PAYLOAD·🇺🇸 United States

Wystrzelony Oct 3, 2025 z Vandenberg Space Force Base

Loading…

Następne Przeloty (najbliższe 24 godziny)

TLE

ŚwieżeSource: CelesTrak SupGP

Epoka: Sep 14, 2026, 15:38 UTC

1 65873C 25223V   26257.65187500  .00032563  00000+0  96192-3 0  2572
2 65873  53.1565 132.7016 0001265  95.6576 121.6171 15.34379681    15

Śledź STARLINK-35423 w czasie rzeczywistym z AllMySat

Download on the App Store